This is the latest recevied weather packets stored in our database for station/object KC1TWD. If no packets are shown the sender has not sent any weather packets the latest 10 day(s).
| Time | Temp. | Humidity | Pressure | Rain* | Wind** | Luminosity | Snow |
|---|---|---|---|---|---|---|---|
| 1777853780 | 6.67° C | 60% | 1008.3 hPa | 0 mm | - | - | - |
| 1777853475 | - | - | - | 0 mm | - | - | - |
| 1777853173 | - | - | - | 0 mm | - | - | - |
| 1777852870 | - | - | - | 0 mm | - | - | - |
| 1777852568 | - | - | - | 0 mm | - | - | - |
| 1777852265 | - | - | - | 0 mm | - | - | - |
| 1777851963 | 8.33° C | 51% | 1008.1 hPa | 0 mm | - | - | - |
| 1777851661 | 8.33° C | 51% | 1008 hPa | 0 mm | - | - | - |
| 1777851357 | 8.89° C | 51% | 1008 hPa | 0 mm | - | - | - |
| 1777851053 | 8.33° C | 50% | 1007.9 hPa | 0 mm | - | - | - |
| 1777850750 | 8.89° C | 49% | 1007.8 hPa | 0 mm | - | - | - |
| 1777850448 | 8.89° C | 49% | 1008.1 hPa | 0 mm | - | - | - |
| 1777850145 | 9.44° C | 47% | 1007.8 hPa | 0 mm | - | - | - |
| 1777849842 | 9.44° C | 48% | 1007.8 hPa | 0 mm | - | - | - |
| 1777849538 | 9.44° C | 47% | 1007.7 hPa | 0 mm | - | - | - |
| 1777849236 | 9.44° C | 46% | 1007.7 hPa | 0 mm | - | - | - |
| 1777848933 | 9.44° C | 47% | 1007.6 hPa | 0 mm | - | - | - |
| 1777848627 | 10° C | 45% | 1007.6 hPa | 0 mm | - | - | - |
| 1777848326 | 10° C | 47% | 1007.5 hPa | 0 mm | - | - | - |
| 1777848023 | 9.44° C | 45% | 1007.4 hPa | 0 mm | - | - | - |
| 1777847721 | 10° C | 46% | 1007.7 hPa | 0 mm | - | - | - |
| 1777847416 | 10° C | 44% | 1007.4 hPa | 0 mm | - | - | - |
| 1777847115 | 10° C | 44% | 1007.6 hPa | 0 mm | - | - | - |
| 1777846812 | 10° C | 44% | 1007.2 hPa | 0 mm | - | - | - |
| 1777846510 | 10° C | 43% | 1007.4 hPa | 0 mm | - | - | - |
* Rain latest hour (hover to see other rain measurements)
** Current wind speed in m/s (hover to see current wind gust speed)